Weather History for Vacaville, CA

Change the Weather History Date:

Friday, November 28, 2014

  Actual Average Record
Temperature  
Mean Temperature 51 °F -  
Max Temperature 68 °F 59 °F 73 °F (1977)
Min Temperature 34 °F 37 °F 22 °F (1948)
Degree Days  
Heating Degree Days 14    
Growing Degree Days 1 (Base 50)    
Moisture  
Dew Point 43 °F    
Average Humidity 83    
Maximum Humidity 97    
Minimum Humidity 50    
Precipitation  
Precipitation 0.14 in - - ()
Sea Level Pressure  
Sea Level Pressure 29.96 in    
Wind  
Wind Speed 2 mph (SSW)    
Max Wind Speed 9 mph    
Max Gust Speed -    
Visibility 5 miles    
Events Fog , Rain    
Averages and records for this station are not official NWS values.
T = Trace of Precipitation, MM = Missing Value Source: NWS Daily Summary

Daily Weather History Graph

Daily Weather History Graph

Search for Another Location

Airport:

Trip Planner

Search our weather history database for the weather conditions in past years. The results will help you decide how hot, cold, wet, or windy it might be!

Date:

Astronomy

Nov. 28, 2014 Rise Set
Actual Time 7:03 AM PST 4:48 PM PST
Civil Twilight 6:34 AM PST 5:17 PM PST
Nautical Twilight 6:01 AM PST 5:50 PM PST
Astronomical Twilight 5:29 AM PST 6:21 PM PST
Moon 12:02 PM PST (11/28) 11:39 PM PST (11/28)
Length of Visible Light 10h 43m
Length of Day
9h 45m
Waxing Crescent, 43% of the Moon is Illuminated
Nov 28
Waxing Crescent
Nov 29
First Quarter
Dec 6
Full
Dec 14
Last Quarter
Dec 21
New

Hourly Weather History & Observations

Time (PST) Temp. Windchill Dew Point Humidity Pressure Visibility Wind Dir Wind Speed Gust Speed Precip Events Conditions
12:53 AM 39.9 °F 37.8 °F 37.0 °F 89% 30.06 in 9.0 mi East 3.5 mph - N/A   Clear
1:53 AM 37.0 °F - 35.1 °F 93% 30.05 in 8.0 mi Calm Calm - N/A   Clear
2:44 AM 37.0 °F 34.5 °F 35.1 °F 93% 30.04 in 1.8 mi WNW 3.5 mph - N/A   Clear
2:53 AM 36.0 °F - 34.0 °F 93% 30.04 in 1.5 mi Calm Calm - N/A   Clear
2:58 AM 35.1 °F - 33.1 °F 92% 30.04 in 3.0 mi Calm Calm - N/A   Clear
3:36 AM 35.1 °F - 33.1 °F 92% 30.03 in 2.5 mi Calm Calm - N/A   Clear
3:53 AM 35.1 °F - 33.1 °F 92% 30.02 in 3.0 mi Calm Calm - N/A   Clear
4:01 AM 34.0 °F - 32.0 °F 92% 30.02 in 2.0 mi Calm Calm - N/A   Clear
4:16 AM 34.0 °F 31.0 °F 33.1 °F 96% 30.02 in 1.5 mi ENE 3.5 mph - N/A   Partly Cloudy
4:19 AM 34.0 °F 31.0 °F 33.1 °F 96% 30.01 in 0.8 mi ENE 3.5 mph - N/A   Mist
4:53 AM 37.0 °F - 36.0 °F 96% 30.01 in 0.2 mi Calm Calm - N/A Fog Fog
5:49 AM 35.6 °F - 33.8 °F 93% 30.01 in 0.2 mi Calm Calm - N/A Fog Fog
5:53 AM 35.1 °F - 33.1 °F 92% 30.01 in 0.2 mi Calm Calm - N/A Fog Fog
6:45 AM 34.0 °F - 33.1 °F 96% 30.01 in 1.8 mi Calm Calm - N/A   Mostly Cloudy
6:53 AM 35.1 °F - 33.1 °F 92% 30.02 in 1.5 mi Calm Calm - N/A   Mostly Cloudy
7:10 AM 36.0 °F - 35.1 °F 97% 30.01 in 0.5 mi Calm Calm - N/A Fog Fog
7:53 AM 36.0 °F 33.3 °F 34.0 °F 93% 30.01 in 0.2 mi NW 3.5 mph - N/A Fog Fog
8:53 AM 45.0 °F 42.6 °F 42.1 °F 90% 30.01 in 0.5 mi North 4.6 mph - N/A Fog Fog
9:02 AM 45.0 °F - 43.0 °F 93% 30.02 in 1.0 mi Calm Calm - N/A   Clear
9:12 AM 46.0 °F - 43.0 °F 89% 30.02 in 2.5 mi Calm Calm - N/A   Clear
9:24 AM 46.9 °F - 43.0 °F 86% 30.02 in 4.0 mi Calm Calm - N/A   Clear
9:53 AM 53.1 °F - 45.0 °F 74% 30.02 in 8.0 mi Calm Calm - N/A   Clear
10:53 AM 61.0 °F - 46.9 °F 60% 30.00 in 10.0 mi Calm Calm - N/A   Clear
11:53 AM 64.0 °F - 48.9 °F 58% 29.97 in 10.0 mi Variable 4.6 mph - N/A   Clear
12:53 PM 68.0 °F - 48.9 °F 50% 29.94 in 10.0 mi SW 5.8 mph - N/A   Clear
1:53 PM 66.9 °F - 48.9 °F 52% 29.92 in 10.0 mi SSW 8.1 mph - N/A   Clear
2:53 PM 68.0 °F - 48.9 °F 50% 29.90 in 10.0 mi SSW 3.5 mph - N/A   Clear
3:53 PM 66.0 °F - 48.9 °F 54% 29.89 in 10.0 mi WSW 6.9 mph - N/A   Clear
4:53 PM 62.1 °F - 48.9 °F 62% 29.87 in 10.0 mi SW 3.5 mph - N/A   Mostly Cloudy
5:53 PM 62.1 °F - 48.9 °F 62% 29.85 in 10.0 mi SSW 6.9 mph - N/A   Overcast
6:53 PM 61.0 °F - 50.0 °F 67% 29.85 in 10.0 mi SSW 9.2 mph - N/A   Overcast
7:53 PM 59.0 °F - 51.1 °F 75% 29.87 in 9.0 mi SW 5.8 mph - N/A   Overcast
8:53 PM 57.0 °F - 53.1 °F 87% 29.88 in 10.0 mi SSW 6.9 mph - 0.01 in Rain Light Rain
9:50 PM 55.4 °F - 53.6 °F 94% 29.86 in 4.0 mi South 8.1 mph - 0.08 in Rain Rain
9:53 PM 55.9 °F - 54.0 °F 93% 29.86 in 5.0 mi South 6.9 mph - 0.09 in Rain Rain
10:03 PM 55.9 °F - 54.0 °F 93% 29.87 in 8.0 mi South 9.2 mph - 0.00 in Rain Light Rain
10:45 PM 55.9 °F - 54.0 °F 93% 29.87 in 10.0 mi SSE 4.6 mph - 0.01 in   Overcast
10:53 PM 55.9 °F - 54.0 °F 93% 29.87 in 9.0 mi South 3.5 mph - 0.01 in   Overcast
11:53 PM 55.9 °F - 54.0 °F 93% 29.86 in 3.0 mi ESE 4.6 mph - 0.03 in Rain Light Rain